When you browse on this site, cookies collect data to enhance your experience and personalize the content and advertising you see.
Visit our Privacy Policy to learn more. By continuing to use the site, you agree to this use of cookies and data.

Hourly Weather Los Angeles

Today, 15 July, Wednesday

Time Temperature Precipitation Wind Pressure Humidity
00:00 +7°C° 0 mm 1 mps 750 mmHg 90%
01:00 +7°C° 0 mm 1 mps 750 mmHg 89%
02:00 +7°C° 0 mm 1 mps 749 mmHg 88%
03:00 +7°C° 0 mm 1 mps 749 mmHg 87%
04:00 +6°C° 0 mm 1 mps 748 mmHg 86%
05:00 +6°C° 0 mm 1 mps 748 mmHg 86%
06:00 +6°C° 0 mm 1 mps 749 mmHg 86%
07:00 +6°C° 0 mm 1 mps 749 mmHg 85%
08:00 +8°C° 0 mm 1 mps 749 mmHg 79%
09:00 +11°C° 0 mm 1 mps 748 mmHg 72%
10:00 +12°C° 0 mm 0 mps 748 mmHg 65%
11:00 +13°C° 0 mm 0 mps 748 mmHg 63%
12:00 +14°C° 0 mm 0 mps 747 mmHg 61%
13:00 +15°C° 0 mm 0 mps 747 mmHg 59%
14:00 +14°C° 0 mm 0 mps 747 mmHg 64%
15:00 +13°C° 0 mm 0 mps 747 mmHg 70%
16:00 +12°C° 0 mm 0 mps 747 mmHg 75%
17:00 +12°C° 0 mm 0 mps 747 mmHg 78%
18:00 +11°C° 0 mm 0 mps 748 mmHg 80%
19:00 +10°C° 0 mm 0 mps 748 mmHg 83%
20:00 +10°C° 0 mm 1 mps 748 mmHg 85%
21:00 +10°C° 0 mm 1 mps 748 mmHg 88%
22:00 +9°C° 0 mm 1 mps 748 mmHg 90%
23:00 +9°C° 0 mm 1 mps 748 mmHg 91%

Tomorrow, 16 July, Thursday

Time Temperature Precipitation Wind Pressure Humidity
00:00 +8°C° 0 mm 1 mps 748 mmHg 92%
01:00 +8°C° 0 mm 1 mps 748 mmHg 94%
02:00 +8°C° 0 mm 1 mps 748 mmHg 93%
03:00 +7°C° 0 mm 1 mps 748 mmHg 93%
04:00 +7°C° 0 mm 1 mps 748 mmHg 93%
05:00 +7°C° 0 mm 1 mps 748 mmHg 93%
06:00 +7°C° 0 mm 1 mps 748 mmHg 92%
07:00 +7°C° 0 mm 1 mps 748 mmHg 91%
08:00 +9°C° 0 mm 1 mps 748 mmHg 87%
09:00 +10°C° 0 mm 1 mps 748 mmHg 84%
10:00 +11°C° 0 mm 1 mps 747 mmHg 80%
11:00 +13°C° 0 mm 2 mps 747 mmHg 76%
12:00 +14°C° 0 mm 2 mps 746 mmHg 73%
13:00 +14°C° 0 mm 3 mps 746 mmHg 70%
14:00 +14°C° 0 mm 2 mps 746 mmHg 74%
15:00 +14°C° 0 mm 2 mps 746 mmHg 77%
16:00 +13°C° 0 mm 2 mps 746 mmHg 81%
17:00 +12°C° 0 mm 2 mps 746 mmHg 85%
18:00 +10°C° 0 mm 2 mps 746 mmHg 89%
19:00 +10°C° 0 mm 1 mps 745 mmHg 93%
20:00 +9°C° 0 mm 2 mps 745 mmHg 93%
21:00 +9°C° 0 mm 2 mps 745 mmHg 94%
22:00 +9°C° 0 mm 2 mps 745 mmHg 95%
23:00 +8°C° 0 mm 2 mps 744 mmHg 94%

Day after tomorrow, 17 July, Friday

Time Temperature Precipitation Wind Pressure Humidity
00:00 +8°C° 0 mm 2 mps 744 mmHg 94%
01:00 +8°C° 0 mm 2 mps 743 mmHg 94%
02:00 +9°C° 0 mm 2 mps 743 mmHg 92%
03:00 +9°C° 0 mm 3 mps 743 mmHg 89%
04:00 +9°C° 0 mm 3 mps 742 mmHg 87%
05:00 +10°C° 0.5 mm 4 mps 742 mmHg 86%
06:00 +10°C° 0.5 mm 4 mps 742 mmHg 85%
07:00 +9°C° 0.5 mm 5 mps 742 mmHg 84%
08:00 +10°C° 4.9 mm 4 mps 742 mmHg 88%
09:00 +10°C° 4.9 mm 4 mps 742 mmHg 93%
10:00 +10°C° 4.9 mm 3 mps 742 mmHg 97%
11:00 +11°C° 2.2 mm 4 mps 742 mmHg 92%
12:00 +12°C° 2.2 mm 4 mps 742 mmHg 88%
13:00 +13°C° 2.2 mm 4 mps 742 mmHg 84%
14:00 +12°C° 0.7 mm 4 mps 742 mmHg 86%
15:00 +12°C° 0.7 mm 4 mps 743 mmHg 88%
16:00 +11°C° 0.7 mm 3 mps 743 mmHg 89%
17:00 +11°C° 0.6 mm 3 mps 743 mmHg 91%
18:00 +11°C° 0.6 mm 3 mps 743 mmHg 93%
19:00 +10°C° 0.6 mm 3 mps 743 mmHg 94%
20:00 +10°C° 1.1 mm 4 mps 743 mmHg 94%
21:00 +10°C° 1.1 mm 4 mps 743 mmHg 94%
22:00 +10°C° 1.1 mm 4 mps 743 mmHg 94%
23:00 +10°C° 0.8 mm 4 mps 743 mmHg 94%

18 July, Saturday

Time Temperature Precipitation Wind Pressure Humidity
00:00 +10°C° 0.8 mm 4 mps 743 mmHg 94%
01:00 +11°C° 0.8 mm 4 mps 743 mmHg 94%
02:00 +10°C° 0.3 mm 4 mps 743 mmHg 94%
03:00 +10°C° 0.3 mm 4 mps 743 mmHg 93%
04:00 +8°C° 0.3 mm 4 mps 743 mmHg 93%
05:00 +8°C° 0.2 mm 4 mps 744 mmHg 93%
06:00 +8°C° 0.2 mm 4 mps 744 mmHg 93%
07:00 +8°C° 0.2 mm 4 mps 745 mmHg 94%
08:00 +10°C° 0.5 mm 4 mps 745 mmHg 91%
09:00 +11°C° 0.5 mm 4 mps 746 mmHg 88%
10:00 +12°C° 0.5 mm 5 mps 746 mmHg 86%
11:00 +12°C° 0.6 mm 5 mps 746 mmHg 85%
12:00 +12°C° 0.6 mm 4 mps 745 mmHg 84%
13:00 +13°C° 0.6 mm 4 mps 745 mmHg 82%
14:00 +12°C° 0.6 mm 4 mps 745 mmHg 85%
15:00 +11°C° 0.6 mm 4 mps 745 mmHg 87%
16:00 +11°C° 0.6 mm 4 mps 746 mmHg 89%
17:00 +10°C° 0.6 mm 3 mps 746 mmHg 91%
18:00 +10°C° 0.6 mm 3 mps 746 mmHg 92%
19:00 +10°C° 0.6 mm 2 mps 747 mmHg 94%
20:00 +10°C° 0.2 mm 2 mps 747 mmHg 94%
21:00 +10°C° 0.2 mm 2 mps 747 mmHg 94%
22:00 +10°C° 0.2 mm 2 mps 747 mmHg 95%
23:00 +10°C° 0.2 mm 2 mps 747 mmHg 95%

19 July, Sunday

Time Temperature Precipitation Wind Pressure Humidity
00:00 +10°C° 0.2 mm 2 mps 747 mmHg 95%
01:00 +10°C° 0.2 mm 2 mps 747 mmHg 96%
02:00 +10°C° 0.3 mm 2 mps 747 mmHg 95%
03:00 +10°C° 0.3 mm 2 mps 747 mmHg 95%
04:00 +10°C° 0.3 mm 2 mps 747 mmHg 95%
05:00 +10°C° 0.9 mm 2 mps 747 mmHg 95%
06:00 +10°C° 0.9 mm 2 mps 747 mmHg 96%
07:00 +10°C° 0.9 mm 2 mps 747 mmHg 96%
08:00 +10°C° 0.7 mm 2 mps 747 mmHg 95%
09:00 +10°C° 0.7 mm 2 mps 747 mmHg 94%
10:00 +12°C° 0.7 mm 2 mps 747 mmHg 92%
11:00 +12°C° 1.3 mm 2 mps 747 mmHg 93%
12:00 +10°C° 1.3 mm 2 mps 746 mmHg 94%
13:00 +10°C° 1.3 mm 2 mps 746 mmHg 95%
14:00 +10°C° 2.2 mm 2 mps 746 mmHg 96%
15:00 +10°C° 2.2 mm 2 mps 745 mmHg 97%
16:00 +10°C° 2.2 mm 2 mps 745 mmHg 97%
17:00 +10°C° 3.1 mm 2 mps 745 mmHg 97%
18:00 +9°C° 3.1 mm 2 mps 745 mmHg 97%
19:00 +9°C° 3.1 mm 2 mps 745 mmHg 98%
20:00 +9°C° 2.1 mm 2 mps 746 mmHg 97%
21:00 +9°C° 2.1 mm 2 mps 746 mmHg 97%
22:00 +9°C° 2.1 mm 2 mps 746 mmHg 97%
23:00 +9°C° 0.5 mm 2 mps 746 mmHg 96%

20 July, Monday

Time Temperature Precipitation Wind Pressure Humidity
00:00 +9°C° 0.5 mm 2 mps 746 mmHg 96%
01:00 +8°C° 0.5 mm 2 mps 746 mmHg 95%
02:00 +8°C° 0.6 mm 2 mps 746 mmHg 95%
03:00 +8°C° 0.6 mm 2 mps 746 mmHg 95%
04:00 +8°C° 0.6 mm 2 mps 746 mmHg 95%
05:00 +8°C° 0.4 mm 2 mps 746 mmHg 95%
06:00 +8°C° 0.4 mm 2 mps 747 mmHg 95%
07:00 +8°C° 0.4 mm 2 mps 747 mmHg 95%
08:00 +9°C° 0.1 mm 2 mps 747 mmHg 91%
09:00 +10°C° 0.1 mm 3 mps 748 mmHg 88%
10:00 +11°C° 0.1 mm 3 mps 748 mmHg 84%
11:00 +11°C° 0.7 mm 3 mps 748 mmHg 86%
12:00 +11°C° 0.7 mm 3 mps 747 mmHg 87%
13:00 +11°C° 0.7 mm 3 mps 747 mmHg 89%
14:00 +11°C° 0.5 mm 3 mps 747 mmHg 89%
15:00 +10°C° 0.5 mm 2 mps 747 mmHg 89%
16:00 +10°C° 0.5 mm 2 mps 748 mmHg 89%
17:00 +10°C° 0.4 mm 2 mps 748 mmHg 91%
18:00 +9°C° 0.4 mm 2 mps 748 mmHg 92%
19:00 +8°C° 0.4 mm 2 mps 748 mmHg 93%
20:00 +8°C° 0.2 mm 2 mps 749 mmHg 94%
21:00 +9°C° 0.2 mm 1 mps 749 mmHg 94%
22:00 +9°C° 0.2 mm 1 mps 749 mmHg 94%
23:00 +9°C° 0.5 mm 1 mps 749 mmHg 95%
Show more